This is the latest recevied weather packets stored in our database for station/object KD4UFD. If no packets are shown the sender has not sent any weather packets the latest 10 day(s).
| Time | Temp. | Humidity | Pressure | Rain* | Wind** | Luminosity | Snow |
|---|---|---|---|---|---|---|---|
| 1777667219 | 21.11° C | 45% | 1012.1 hPa | 0 mm | - | 448 W/m² | - |
| 1777666915 | 21.11° C | 51% | 1012.3 hPa | 0 mm | - | 466 W/m² | - |
| 1777666612 | 21.11° C | 50% | 1012.6 hPa | 0 mm | - | 538 W/m² | - |
| 1777666309 | 21.67° C | 48% | 1012.4 hPa | 0 mm | - | 549 W/m² | - |
| 1777666006 | 21.11° C | 48% | 1012.3 hPa | 0 mm | - | 500 W/m² | - |
| 1777665704 | 20.56° C | 45% | 1012.5 hPa | 0 mm | - | 484 W/m² | - |
| 1777665401 | 20.56° C | 46% | 1012.6 hPa | 0 mm | - | 452 W/m² | - |
| 1777665096 | 21.11° C | 48% | 1012.5 hPa | 0 mm | - | 439 W/m² | - |
| 1777664792 | 20.56° C | 44% | 1012.4 hPa | 0 mm | - | 472 W/m² | - |
| 1777664488 | 20.56° C | 43% | 1012.4 hPa | 0 mm | - | 491 W/m² | - |
| 1777664185 | 21.11° C | 44% | 1012.7 hPa | 0 mm | - | 449 W/m² | - |
| 1777663884 | 21.11° C | 45% | 1012.5 hPa | 0 mm | - | 433 W/m² | - |
| 1777663580 | 21.11° C | 48% | 1012.6 hPa | 0 mm | - | 420 W/m² | - |
| 1777663278 | 20.56° C | 47% | 1012.8 hPa | 0 mm | - | 387 W/m² | - |
| 1777662975 | 20.56° C | 46% | 1012.8 hPa | 0 mm | - | 443 W/m² | - |
| 1777662672 | 21.11° C | 44% | 1013 hPa | 0 mm | - | 481 W/m² | - |
| 1777662368 | 20.56° C | 44% | 1012.8 hPa | 0 mm | - | 403 W/m² | - |
| 1777662063 | 21.11° C | 46% | 1012.7 hPa | 0 mm | - | 567 W/m² | - |
| 1777661760 | 21.67° C | 41% | 1012.9 hPa | 0 mm | - | 422 W/m² | - |
| 1777661456 | 21.11° C | 47% | 1013 hPa | 0 mm | - | 509 W/m² | - |
| 1777661151 | 20.56° C | 45% | 1012.8 hPa | 0 mm | - | 454 W/m² | - |
| 1777660846 | 21.11° C | 46% | 1013 hPa | 0 mm | - | 582 W/m² | - |
| 1777660544 | 21.11° C | 45% | 1013.2 hPa | 0 mm | - | 581 W/m² | - |
| 1777660240 | 20.56° C | 46% | 1013 hPa | 0 mm | - | 638 W/m² | - |
| 1777659937 | 20.56° C | 48% | 1012.9 hPa | 0 mm | - | 601 W/m² | - |
* Rain latest hour (hover to see other rain measurements)
** Current wind speed in m/s (hover to see current wind gust speed)